Kuchera_Ratio
0.0 0.0 0.0 0.0 0.0 0.0 0.0 0.0 0.0 0.0 0.0 0.0 0.0 0.0 0.0 0.0 0.0 0.0 0.0 0.0 0.0 0.0 0.0 0.0 0.0 0.0 0.0 0.0 0.0 0.0 0.0 0.0 0.0 0.0 0.0 0.0 0.0 0.0
0.0 0.0 0.0 0.0 0.0 0.0 0.0 0.0 0.0 0.0 0.0 0.0 0.0 0.0 0.0 0.0 0.0 0.0 0.0 0.0 0.0 0.0 0.0 0.0 0.0 0.0 0.0 0.0 0.0 0.0 0.0 0.0 0.0 0.0 0.0 0.0 0.0 0.0
0.0 0.0 0.0 0.0 0.0 0.0 0.0 0.0 0.0 0.0 0.0 0.0 0.0 0.0 0.0 0.0 0.0 0.0 0.0 0.0 0.0 0.0 0.0 0.0 0.0 0.0 0.0 0.0 0.0 0.0 0.0 0.0 0.0 0.0 0.0 0.0 0.0 0.0
2.2 0.0 0.0 0.0 0.0 0.0 0.0 0.0 0.0 0.0 0.0 0.0 0.0 0.0 0.0 0.0 0.0 0.0 0.0 0.0 0.0 0.0 0.0 0.0 0.0 0.0 0.0 0.0 0.0 0.0 0.0 0.0 0.0 0.0 0.0 0.0 0.0 0.0
5.2 3.2 1.0 0.6 0.0 0.0 0.0 0.0 0.0 0.0 0.0 0.0 0.0 0.0 0.0 0.0 0.0 0.0 0.0 0.0 0.0 0.0 0.0 0.0 0.0 0.0 0.0 0.0 0.0 0.0 0.0 0.0 0.0 0.0 0.0 0.0 0.0 0.0
7.2 5.4 4.6 4.5 0.3 0.0 0.0 0.0 0.0 0.0 0.0 0.0 0.0 0.0 0.0 0.0 0.0 0.0 0.0 0.0 0.0 0.0 0.0 0.0 0.0 0.0 0.0 0.0 0.0 0.0 0.0 0.0 0.0 0.0 0.0 0.0 0.0 0.0
9.6 8.2 5.8 4.8 0.8 0.0 0.0 0.0 0.0 0.0 0.0 0.0 0.0 0.0 0.0 0.0 0.0 0.0 0.0 0.0 0.0 0.0 0.0 0.0 0.0 0.0 0.0 0.0 0.0 0.0 0.0 0.0 0.0 0.0 0.0 0.0 0.0 0.0
12.2 10.6 9.0 7.4 7.6 2.3 0.0 0.0 0.0 0.0 0.0 0.0 0.0 0.0 0.0 0.0 0.0 0.0 0.0 0.0 0.0 0.0 0.0 0.0 0.0 0.0 0.0 0.0 0.0 0.0 0.0 0.0 0.0 0.0 0.0 0.0 0.0 0.0
12.3 12.0 10.6 9.6 9.2 7.4 3.7 0.0 0.0 0.0 0.0 0.0 0.0 0.0 0.0 0.0 0.0 0.0 0.0 0.0 0.0 0.0 0.0 0.0 0.0 0.0 0.0 0.0 0.0 0.0 0.0 0.0 0.0 0.0 0.0 0.0 0.0 0.0
12.0 11.8 11.2 11.6 10.2 7.8 8.0 5.5 2.4 2.1 0.0 0.0 0.0 0.0 0.0 0.0 0.0 0.0 0.0 0.0 0.0 0.0 0.0 0.0 0.0 0.0 0.0 0.0 0.0 0.0 0.0 0.0 0.0 0.0 0.0 0.0 0.0 0.0
10.6 11.4 10.6 10.6 8.6 6.2 8.8 9.2 8.6 6.0 3.4 4.6 0.0 0.0 0.0 0.0 0.0 0.0 0.0 0.0 0.0 0.0 0.0 0.0 0.0 0.0 0.0 0.0 0.0 0.0 0.0 0.0 0.0 0.0 0.0 0.0 0.0 0.0
12.5 11.6 10.0 10.4 10.4 9.4 11.6 11.0 10.6 11.5 10.2 4.7 0.7 0.9 0.0 0.0 0.0 0.0 0.0 0.0 0.0 0.0 0.0 0.0 0.0 0.0 0.0 0.0 0.0 0.0 0.0 0.0 0.0 0.0 0.0 0.0 0.0 0.0
14.0 13.5 12.8 10.4 10.6 10.6 11.0 12.5 11.0 8.2 7.3 7.8 7.8 2.6 0.0 0.0 0.0 0.0 0.8 0.1 0.0 0.0 0.0 0.0 0.0 0.0 0.0 0.0 0.0 0.0 0.0 0.0 0.0 0.0 0.0 0.0 0.0 0.0
15.7 14.5 13.8 12.0 11.8 12.2 12.2 11.5 10.8 7.6 9.2 8.3 7.3 4.8 3.1 1.9 1.1 1.9 1.1 0.2 0.0 0.0 0.0 0.0 0.0 0.0 0.0 0.0 0.0 0.0 0.0 0.0 0.0 0.0 0.0 0.0 0.0 0.0
15.0 14.4 14.1 13.9 13.5 13.8 13.0 12.8 12.2 10.7 9.4 8.4 7.6 7.4 6.5 5.4 5.0 4.6 3.9 1.8 0.6 0.0 0.0 0.0 0.0 0.0 0.0 0.0 0.0 0.0 0.0 0.0 0.0 0.0 0.0 0.0 0.0 0.0
16.8 16.8 17.3 16.0 16.3 15.9 15.0 13.7 12.1 11.8 9.3 8.9 8.6 8.0 7.0 6.7 6.6 6.4 5.0 4.7 3.4 1.8 1.2 1.6 0.1 0.0 0.0 0.0 0.0 0.0 0.0 0.0 0.0 0.0 0.0 0.0 0.0 0.0
18.3 18.6 18.8 18.6 18.4 17.4 16.2 15.1 13.8 12.9 12.4 9.1 11.0 9.6 8.2 8.2 7.1 6.7 5.3 5.1 4.7 4.5 4.4 3.7 3.3 2.4 1.0 0.2 1.1 0.0 0.0 0.0 0.0 0.0 0.0 0.0 0.0 0.0
19.9 20.6 20.1 19.3 18.2 17.3 16.8 16.2 15.6 14.6 13.4 12.7 11.8 9.5 9.7 9.2 8.4 7.7 6.5 5.7 5.4 4.7 5.0 4.9 4.3 4.6 4.5 3.7 2.5 0.6 0.7 0.3 0.0 0.0 1.1 0.0 0.0 0.0
21.8 21.2 21.0 20.4 19.5 18.6 18.0 17.1 16.3 15.9 15.0 14.0 13.2 12.7 12.3 12.6 11.4 10.4 9.3 8.3 7.9 6.9 6.2 5.8 5.3 5.0 5.9 5.8 6.2 4.1 1.9 1.2 0.6 2.2 2.5 2.1 1.9 1.4
23.0 22.9 22.2 21.4 20.8 20.1 19.5 19.0 18.5 17.7 16.9 16.3 15.8 15.2 14.6 13.1 12.4 12.4 12.2 11.5 10.4 9.6 9.2 8.0 7.0 7.7 8.2 7.6 8.0 7.5 6.1 5.4 4.6 5.2 4.9 4.5 5.1 5.7
24.1 24.2 23.9 23.3 22.7 21.8 21.0 20.2 19.2 18.6 18.0 17.6 17.0 16.1 15.4 14.7 14.3 13.9 13.4 12.9 12.4 11.9 11.8 11.8 7.2 7.2 8.9 9.6 9.2 9.4 9.1 6.7 6.4 7.1 6.4 8.0 9.2 8.9
24.7 24.8 24.4 24.1 24.1 23.7 23.3 22.3 21.4 20.7 19.9 18.9 17.8 16.9 16.3 15.6 15.0 14.7 14.3 13.7 13.3 13.0 12.7 12.0 8.6 9.2 10.8 10.2 12.1 12.1 11.8 10.6 8.4 8.6 8.6 9.0 11.3 10.6
24.8 24.8 24.7 24.6 24.0 23.7 23.6 23.7 22.9 22.0 21.3 20.5 19.4 18.4 17.4 16.8 16.2 15.4 14.8 14.6 14.3 14.0 13.8 13.4 11.4 10.0 11.2 12.0 12.6 13.2 13.2 12.9 12.4 12.6 11.8 9.4 8.7 8.7